Location: Buttermere
(51.3333°N, 1.5167°W)
Time: 13:50:46
(UTC+00:00)

Cosmos 2266 Rocket - Pass Details

Date: 18 September 2020
Orbit: 934 x 1008 km, 82.9° (Epoch: 25 October)

Event Time Altitude Azimuth Distance (km) Brightness Sun altitude
Rises 20:57:02 0° 352° (N) 3,622 7.6 -24.6°
Reaches altitude 10° 20:59:39 10° 359° (N) 2,666 6.8 -24.9°
Maximum altitude 21:05:30 47° 73° (ENE) 1,218 4.2 -25.6°
Enters shadow 21:05:32 47° 74° (ENE) 1,218 4.2 -25.7°
